This is the latest recevied weather packets stored in our database for station/object W4OA. If no packets are shown the sender has not sent any weather packets the latest 1 day(s).
| Time | Temp. | Humidity | Pressure | Rain* | Wind** | Luminosity | Snow |
|---|---|---|---|---|---|---|---|
| 1836274673 | 21.11° C | 83% | 1011 hPa | 0 mm | 0 m/s | 0 W/m² | - |
| 1836274523 | 21.11° C | 83% | 1011 hPa | 0 mm | 0 m/s | 0 W/m² | - |
| 1836274375 | 21.11° C | 82% | 1011 hPa | 0 mm | 0 m/s | 0 W/m² | - |
| 1836274222 | 21.11° C | 83% | 1011 hPa | 0 mm | 0 m/s | 0 W/m² | - |
| 1836274073 | 21.11° C | 82% | 1011 hPa | 0 mm | 0 m/s | 0 W/m² | - |
| 1778040298 | 21.11° C | 73% | 1008 hPa | 0 mm | 0.89 m/s, 90° | 0 W/m² | - |
| 1778039998 | 21.11° C | 72% | 1007 hPa | 0 mm | 0 m/s | 0 W/m² | - |
| 1778039699 | 21.11° C | 72% | 1008 hPa | 0 mm | 0 m/s | 0 W/m² | - |
| 1778039398 | 21.11° C | 71% | 1008 hPa | 0 mm | 2.24 m/s, 90° | 0 W/m² | - |
| 1778039099 | 21.11° C | 71% | 1008 hPa | 0 mm | 0.89 m/s, 68° | 0 W/m² | - |
| 1778038798 | 21.11° C | 71% | 1008 hPa | 0 mm | 1.34 m/s, 68° | 0 W/m² | - |
| 1778038499 | 21.11° C | 71% | 1008 hPa | 0 mm | 1.79 m/s, 45° | 0 W/m² | - |
| 1778038198 | 21.11° C | 70% | 1008 hPa | 0 mm | 0 m/s | 0 W/m² | - |
| 1778037900 | 21.11° C | 70% | 1007 hPa | 0 mm | 0.89 m/s, 45° | 0 W/m² | - |
| 1778037599 | 21.67° C | 69% | 1008 hPa | 0 mm | 1.34 m/s, 68° | 0 W/m² | - |
| 1778037298 | 21.67° C | 69% | 1007 hPa | 0 mm | 1.34 m/s, 68° | 0 W/m² | - |
| 1778036998 | 21.67° C | 68% | 1008 hPa | 0 mm | 1.34 m/s, 113° | 0 W/m² | - |
| 1778036699 | 21.67° C | 68% | 1008 hPa | 0 mm | 1.34 m/s, 68° | 0 W/m² | - |
| 1778036399 | 21.67° C | 68% | 1007 hPa | 0 mm | 0.89 m/s, 68° | 0 W/m² | - |
| 1778036098 | 21.67° C | 67% | 1007 hPa | 0 mm | 0.89 m/s, 90° | 0 W/m² | - |
| 1778035798 | 21.67° C | 67% | 1008 hPa | 0 mm | 1.79 m/s, 45° | 0 W/m² | - |
| 1778035499 | 21.67° C | 67% | 1007 hPa | 0 mm | 0.45 m/s, 45° | 0 W/m² | - |
| 1778035200 | 21.67° C | 67% | 1007 hPa | 0 mm | 0.45 m/s, 23° | 0 W/m² | - |
| 1778034898 | 21.67° C | 66% | 1007 hPa | 0 mm | 0.89 m/s, 45° | 0 W/m² | - |
| 1778034598 | 21.67° C | 66% | 1007 hPa | 0 mm | 0.45 m/s, 45° | 0 W/m² | - |
* Rain latest hour (hover to see other rain measurements)
** Current wind speed in m/s (hover to see current wind gust speed)